User: anonymous   Login
Location: Unspecified
(0.0000°N, 0.0000°E)
Time: 10:15:48
(UTC+00:00)
Language:

OBJECT PJ - Orbit

View from above orbital plane
View from above orbital plane
View from above satellite
View from above satellite

Ground track
Ground track

The orbit data is extracted from the following two-line orbital elements,

1 43597U 98067PJ  19107.91325472 +.00017211 +00000-0 +21025-3 0  9994
2 43597 051.6359 294.1826 0003680 244.9961 115.0650 15.60538186038207
Epoch (UTC): 17 April 2019 21:55:05
Eccentricity: 0.0003680
inclination: 51.6359°
perigee height: 383 km
apogee height: 388 km
right ascension of ascending node: 294.1826°
argument of perigee: 244.9961°
revolutions per day: 15.60538186
mean anomaly at epoch: 115.0650°
orbit number at epoch: 3820

The dashed part of the orbit path shows where the satellite is in the earth's shadow,  

DLR